{"data":{"norad_id":57585,"epoch":"2026-09-21T23:24:11.538720Z","epoch_age_seconds":83277,"freshness":"FRESH","line1":"1 57585U 23117F   26264.97513355  .00017906  00000+0  33518-3 0  9997","line2":"2 57585  97.4151 353.3749 0005026 219.5112 140.5773 15.48746167173813","mean_motion":15.48746167,"eccentricity":0.0005026,"inclination_deg":97.4151,"raan_deg":353.3749,"arg_perigee_deg":219.5112,"mean_anomaly_deg":140.5773,"bstar":0.00033518,"rev_number":17381,"period_min":92.9784383447,"perigee_km":416.97595423762,"apogee_km":423.80983648844,"semimajor_km":6798.529895363,"source":"CELESTRAK","updated_at":"2026-09-22T09:00:26.233466Z"}}